• In Hungary
  • List of Countries
  • For 7 days
  • Water Temperature
  • Satellite Maps
  • Weather Map
  • News
  • Weather Widgets
  • user-avatar
    Login

    Hourly Weather Bratanovo

    Today, 24 September, Monday

    Time Temperature Precipitation Wind Pressure Humidity
    00:00 +7°C° 0 mm 3 mps 739 mmHg 92%
    01:00 +7°C° 0 mm 3 mps 739 mmHg 94%
    02:00 +6°C° 0 mm 2 mps 739 mmHg 97%
    03:00 +6°C° 0 mm 2 mps 739 mmHg 97%
    04:00 +6°C° 0 mm 2 mps 739 mmHg 97%
    05:00 +6°C° 0 mm 2 mps 739 mmHg 97%
    06:00 +6°C° 0 mm 2 mps 739 mmHg 94%
    07:00 +7°C° 0 mm 2 mps 739 mmHg 92%
    08:00 +8°C° 0 mm 2 mps 739 mmHg 89%
    09:00 +9°C° 0 mm 2 mps 739 mmHg 83%
    10:00 +10°C° 0 mm 2 mps 739 mmHg 78%
    11:00 +13°C° 0 mm 2 mps 739 mmHg 72%
    12:00 +12°C° 0.5 mm 2 mps 738 mmHg 76%
    13:00 +12°C° 0.5 mm 2 mps 738 mmHg 80%
    14:00 +10°C° 0.5 mm 2 mps 738 mmHg 85%
    15:00 +10°C° 1 mm 2 mps 737 mmHg 88%
    16:00 +9°C° 1 mm 2 mps 736 mmHg 91%
    17:00 +8°C° 1 mm 2 mps 736 mmHg 94%
    18:00 +8°C° 1.2 mm 3 mps 735 mmHg 95%
    19:00 +8°C° 1.2 mm 3 mps 734 mmHg 95%
    20:00 +8°C° 1.2 mm 3 mps 734 mmHg 95%
    21:00 +8°C° 1.5 mm 3 mps 733 mmHg 95%
    22:00 +6°C° 1.5 mm 4 mps 732 mmHg 95%
    23:00 +6°C° 1.5 mm 4 mps 731 mmHg 95%

    Tomorrow, 25 September, Tuesday

    Time Temperature Precipitation Wind Pressure Humidity
    00:00 +6°C° 1.5 mm 4 mps 731 mmHg 94%
    01:00 +6°C° 1.5 mm 5 mps 731 mmHg 94%
    02:00 +6°C° 1.5 mm 5 mps 731 mmHg 94%
    03:00 +6°C° 1.4 mm 5 mps 731 mmHg 93%
    04:00 +5°C° 1.4 mm 6 mps 731 mmHg 92%
    05:00 +5°C° 1.4 mm 6 mps 731 mmHg 92%
    06:00 +5°C° 0.9 mm 6 mps 732 mmHg 91%
    07:00 +5°C° 0.9 mm 7 mps 733 mmHg 90%
    08:00 +5°C° 0.9 mm 7 mps 733 mmHg 89%
    09:00 +5°C° 0.7 mm 7 mps 734 mmHg 87%
    10:00 +5°C° 0.7 mm 7 mps 735 mmHg 86%
    11:00 +5°C° 0.7 mm 7 mps 736 mmHg 85%
    12:00 +5°C° 0.3 mm 7 mps 737 mmHg 82%
    13:00 +6°C° 0.3 mm 7 mps 737 mmHg 79%
    14:00 +6°C° 0.3 mm 7 mps 738 mmHg 77%
    15:00 +5°C° 0.1 mm 6 mps 739 mmHg 77%
    16:00 +5°C° 0.1 mm 6 mps 740 mmHg 77%
    17:00 +5°C° 0.1 mm 6 mps 741 mmHg 77%
    18:00 +4°C° 0 mm 6 mps 742 mmHg 76%
    19:00 +5°C° 0 mm 5 mps 743 mmHg 74%
    20:00 +3°C° 0 mm 5 mps 744 mmHg 73%
    21:00 +3°C° 0 mm 5 mps 744 mmHg 72%
    22:00 +2°C° 0 mm 5 mps 745 mmHg 71%
    23:00 +1°C° 0 mm 5 mps 746 mmHg 69%

    Day after tomorrow, 26 September, Wednesday

    Time Temperature Precipitation Wind Pressure Humidity
    00:00 +1°C° 0 mm 4 mps 747 mmHg 70%
    01:00 0°C° 0 mm 4 mps 747 mmHg 70%
    02:00 0°C° 0 mm 4 mps 748 mmHg 71%
    03:00 -1°C° 0 mm 4 mps 748 mmHg 73%
    04:00 0°C° 0 mm 3 mps 749 mmHg 76%
    05:00 0°C° 0 mm 3 mps 749 mmHg 78%
    06:00 +1°C° 0 mm 3 mps 749 mmHg 76%
    07:00 +2°C° 0 mm 3 mps 749 mmHg 73%
    08:00 +3°C° 0 mm 3 mps 750 mmHg 70%
    09:00 +5°C° 0 mm 4 mps 749 mmHg 68%
    10:00 +7°C° 0 mm 4 mps 749 mmHg 66%
    11:00 +8°C° 0 mm 4 mps 749 mmHg 64%
    12:00 +10°C° 0 mm 4 mps 748 mmHg 61%
    13:00 +10°C° 0 mm 4 mps 748 mmHg 59%
    14:00 +10°C° 0 mm 5 mps 747 mmHg 57%
    15:00 +9°C° 0 mm 5 mps 746 mmHg 60%
    16:00 +8°C° 0 mm 5 mps 745 mmHg 62%
    17:00 +8°C° 0 mm 4 mps 744 mmHg 65%
    18:00 +7°C° 0.7 mm 5 mps 743 mmHg 72%
    19:00 +5°C° 0.7 mm 6 mps 742 mmHg 79%
    20:00 +5°C° 0.7 mm 7 mps 741 mmHg 86%
    21:00 +5°C° 1.3 mm 7 mps 740 mmHg 87%
    22:00 +5°C° 1.3 mm 7 mps 739 mmHg 88%
    23:00 +4°C° 1.3 mm 6 mps 737 mmHg 88%

    27 September, Thursday

    Time Temperature Precipitation Wind Pressure Humidity
    00:00 +5°C° 0.9 mm 6 mps 737 mmHg 89%
    01:00 +5°C° 0.9 mm 6 mps 736 mmHg 90%
    02:00 +6°C° 0.9 mm 5 mps 736 mmHg 90%
    03:00 +6°C° 0.2 mm 5 mps 736 mmHg 90%
    04:00 +5°C° 0.2 mm 4 mps 736 mmHg 90%
    05:00 +5°C° 0.2 mm 4 mps 736 mmHg 90%
    06:00 +5°C° 0 mm 4 mps 736 mmHg 87%
    07:00 +6°C° 0 mm 5 mps 736 mmHg 84%
    08:00 +6°C° 0 mm 5 mps 736 mmHg 82%
    09:00 +6°C° 0.3 mm 5 mps 736 mmHg 79%
    10:00 +7°C° 0.3 mm 6 mps 736 mmHg 77%
    11:00 +7°C° 0.3 mm 6 mps 736 mmHg 75%
    12:00 +8°C° 0.3 mm 6 mps 736 mmHg 73%
    13:00 +8°C° 0.3 mm 6 mps 736 mmHg 71%
    14:00 +8°C° 0.3 mm 6 mps 736 mmHg 69%
    15:00 +7°C° 0.1 mm 5 mps 737 mmHg 72%
    16:00 +7°C° 0.1 mm 4 mps 737 mmHg 75%
    17:00 +6°C° 0.1 mm 4 mps 737 mmHg 78%
    18:00 +5°C° 0 mm 4 mps 737 mmHg 80%
    19:00 +5°C° 0 mm 4 mps 738 mmHg 82%
    20:00 +4°C° 0 mm 4 mps 738 mmHg 83%
    21:00 +4°C° 0 mm 4 mps 739 mmHg 84%
    22:00 +4°C° 0 mm 4 mps 739 mmHg 85%
    23:00 +3°C° 0 mm 3 mps 739 mmHg 86%

    28 September, Friday

    Time Temperature Precipitation Wind Pressure Humidity
    00:00 +3°C° 0 mm 3 mps 739 mmHg 87%
    01:00 +3°C° 0 mm 3 mps 740 mmHg 88%
    02:00 +3°C° 0 mm 3 mps 740 mmHg 88%
    03:00 +3°C° 0 mm 3 mps 740 mmHg 90%
    04:00 +2°C° 0 mm 3 mps 740 mmHg 91%
    05:00 +2°C° 0 mm 3 mps 740 mmHg 92%
    06:00 +4°C° 0 mm 2 mps 740 mmHg 90%
    07:00 +4°C° 0 mm 2 mps 739 mmHg 89%
    08:00 +5°C° 0 mm 2 mps 739 mmHg 88%
    09:00 +5°C° 0.4 mm 2 mps 739 mmHg 87%
    10:00 +6°C° 0.4 mm 1 mps 738 mmHg 86%
    11:00 +7°C° 0.4 mm 1 mps 737 mmHg 86%
    12:00 +7°C° 1 mm 1 mps 737 mmHg 86%
    13:00 +7°C° 1 mm 1 mps 736 mmHg 87%
    14:00 +6°C° 1 mm 1 mps 735 mmHg 87%
    15:00 +6°C° 0.3 mm 1 mps 736 mmHg 88%
    16:00 +5°C° 0.3 mm 2 mps 736 mmHg 89%
    17:00 +5°C° 0.3 mm 2 mps 736 mmHg 89%
    18:00 +5°C° 0.1 mm 2 mps 737 mmHg 89%
    19:00 +4°C° 0.1 mm 2 mps 738 mmHg 90%
    20:00 +4°C° 0.1 mm 2 mps 739 mmHg 90%
    21:00 +3°C° 0 mm 2 mps 739 mmHg 90%
    22:00 +2°C° 0 mm 2 mps 740 mmHg 91%
    23:00 +2°C° 0 mm 2 mps 741 mmHg 92%

    29 September, Saturday

    Time Temperature Precipitation Wind Pressure Humidity
    00:00 +1°C° 0 mm 2 mps 742 mmHg 92%
    01:00 +1°C° 0 mm 2 mps 742 mmHg 92%
    02:00 -1°C° 0 mm 2 mps 743 mmHg 91%
    03:00 -1°C° 0 mm 2 mps 743 mmHg 91%
    04:00 -2°C° 0 mm 2 mps 744 mmHg 92%
    05:00 -2°C° 0 mm 2 mps 745 mmHg 92%
    06:00 -1°C° 0 mm 2 mps 745 mmHg 88%
    07:00 +1°C° 0 mm 2 mps 746 mmHg 84%
    08:00 +2°C° 0 mm 2 mps 746 mmHg 80%
    09:00 +2°C° 0 mm 3 mps 747 mmHg 74%
    10:00 +4°C° 0 mm 3 mps 748 mmHg 69%
    11:00 +5°C° 0 mm 3 mps 748 mmHg 63%
    12:00 +5°C° 0 mm 3 mps 748 mmHg 60%
    13:00 +5°C° 0 mm 4 mps 749 mmHg 57%
    14:00 +6°C° 0 mm 4 mps 749 mmHg 54%
    15:00 +5°C° 0 mm 3 mps 749 mmHg 59%
    16:00 +4°C° 0 mm 3 mps 750 mmHg 65%
    17:00 +3°C° 0 mm 2 mps 750 mmHg 70%
    18:00 +3°C° 0 mm 2 mps 751 mmHg 75%
    19:00 +2°C° 0 mm 2 mps 752 mmHg 80%
    20:00 +1°C° 0 mm 2 mps 752 mmHg 85%
    21:00 -1°C° 0 mm 2 mps 753 mmHg 85%
    22:00 -1°C° 0 mm 2 mps 753 mmHg 86%
    23:00 -1°C° 0 mm 2 mps 754 mmHg 87%
    Show more